Погода в Красном Холме

Россия / Костромская область     58°24′06″N   45°23′45″E
темп.,
°C
ветер,
м/с
пор.,
м/с
влажн.,
%
обл.,
%
осадки,
мм/ч
давл.,
гПа
погр.,
м
4 марта, чт
чт400:00−3з41094100 0.4 997563
03:00−4юз41096100 0.8 995554
06:00−3юз41096100 0.9 991714
09:00−2юз4994100 1.3 988593
12:00−1юз36100100 2.5 986471
15:00−2зсз51086100 5.2 9871012
18:00−5ссз51287100 0.3 991883
21:00−9сз41091100 0.3 996519
5 марта, пт
пт500:00−13сз379557 0.0 998152
03:00−17зсз229529 0.0 100020
06:00−18зюз22970 0.0 100120
09:00−12зюз369638 0.1 1002264
12:00−8з369099 0.1 1003793
15:00−7зсз468699 0.3 10041067
18:00−12сз259499 0.1 100695
21:00−17ссз239571 0.1 100932
6 марта, сб
сб600:00−20сз22980 0.0 101020
03:00−22зсз239811 0.0 101220
06:00−22зсз239987 0.0 101239
09:00−18зсз249584 0.1 1013239
12:00−13зсз358866 0.0 1012691
15:00−12зсз358784 0.1 1012886
18:00−15з2395100 0.1 101130
21:00−18зюз229898 0.1 101120
7 марта, вс
вс700:00−19юз2210090 0.0 101020
03:00−18ю2310093 0.1 100859
06:00−18ююв3998100 0.1 1005210
09:00−14ююв51095100 0.1 1002387
12:00−10ю61193100 0.6 999826
15:00−8ююв61093100 1.4 996882
18:00−8ююв51095100 1.1 993733
21:00−7юв4995100 2.0 991542
8 марта, пн
пн800:00−7вюв3796100 0.7 988381
03:00−8всв3696100 1.6 988318
06:00−8св3895100 0.7 988353
09:00−10с4894100 1.2 990496
12:00−9с4792100 0.3 992721
15:00−9с4891100 0.7 996859
18:00−11ссз4993100 0.2 1000634
21:00−13ссз399296 0.3 1004474